This demonstration page uses our WeatherBlox Daily Observations layout. Learn more.

Left ArrowRight Arrow

Hourly Observations for September 3, 2020

Temp ( °F °C ) Dew Point ( °F °C ) Humidity (%) Winds ( mph kmh ) Pressure ( in mb ) Visibility ( mi km ) Precip ( " mm )
12:51 am 00:51 Clear 79 26.1 54 12.2 42 42 NW 9 15 29.82 1010 10 16.0934 0 0
1:51 am 01:51 Clear 75 23.9 55 12.8 50 50 NW 5 7 29.82 1010 10 16.0934 0 0
2:51 am 02:51 Clear 75 23.9 55 12.8 50 50 WNW 7 11 29.82 1010 10 16.0934 0 0
3:51 am 03:51 Clear 73 22.8 57 13.9 57 57 NNW 7 11 29.82 1010 10 16.0934 0 0
4:51 am 04:51 Clear 73 22.8 54 12.2 51 51 SSE 3 6 29.83 1010 10 16.0934 0 0
5:51 am 05:51 Clear 68 20 54 12.2 61 61 SE 5 7 29.86 1011 10 16.0934 0 0
6:51 am 06:51 Sunny 73 22.8 54 12.2 51 51 SSE 6 9 29.88 1012 10 16.0934 0 0
7:51 am 07:51 Sunny 78 25.6 55 12.8 45 45 SSE 5 7 29.88 1012 10 16.0934 0 0
8:51 am 08:51 Sunny 84 28.9 56 13.3 38 38 Calm 29.88 1012 10 16.0934 0 0
9:51 am 09:51 Sunny 90 32.2 57 13.9 33 33 WNW 12 19 29.86 1011 10 16.0934 0 0
10:51 am 10:51 Sunny 94 34.4 56 13.3 28 28 WNW 10 17 29.84 1010 10 16.0934 0 0
11:51 am 11:51 Sunny 95 35 55 12.8 26 26 W 10 17 29.81 1010 10 16.0934 0 0
12:51 pm 12:51 Sunny 98 36.7 50 10 20 20 NNW 6 9 29.78 1009 10 16.0934 0 0
1:51 pm 13:51 Sunny 100 37.8 42 5.6 14 14 VRB 6 9 29.76 1008 10 16.0934 0 0
2:51 pm 14:51 Sunny 101 38.3 34 1.1 10 10 Calm 29.73 1007 10 16.0934 0 0
3:51 pm 15:51 Sunny 103 39.4 31 -0.6 8 8 S 6 9 29.7 1006 10 16.0934 0 0
4:51 pm 16:51 Sunny 104 40 35 1.7 9 9 NW 7 11 29.69 1005 10 16.0934 0 0
5:51 pm 17:51 Sunny 101 38.3 33 0.6 9 9 NW 6 9 29.7 1006 10 16.0934 0 0
6:51 pm 18:51 Clear 95 35 36 2.2 13 13 NNW 6 9 29.71 1006 10 16.0934 0 0
7:51 pm 19:51 Clear 87 30.6 40 4.4 19 19 Calm 29.75 1007 10 16.0934 0 0
8:51 pm 20:51 Clear 88 31.1 51 10.6 28 28 NW 9 15 29.77 1008 10 16.0934 0 0
9:51 pm 21:51 Clear 88 31.1 50 10 27 27 NW 9 15 29.78 1008 10 16.0934 0 0
10:51 pm 22:51 Clear 84 28.9 51 10.6 32 32 NW 8 13 29.78 1009 10 16.0934 0 0
11:51 pm 23:51 Clear 82 27.8 52 11.1 35 35 NW 3 6 29.79 1009 10 16.0934 0 0

Powered by AerisWeather